This is the latest recevied weather packets stored in our database for station/object G0TRT-13. If no packets are shown the sender has not sent any weather packets the latest 10 day(s).
| Time | Temp. | Humidity | Pressure | Rain* | Wind** | Luminosity | Snow |
|---|---|---|---|---|---|---|---|
| 1778065057 | 13.33° C | 54% | 1014 hPa | 0 mm | - | - | - |
| 1778064757 | 13.33° C | 57% | 1014 hPa | 0 mm | - | - | - |
| 1778064457 | 13.33° C | 54% | 1014 hPa | 0 mm | - | - | - |
| 1778064156 | 13.89° C | 58% | 1013.9 hPa | 0 mm | - | - | - |
| 1778063855 | 13.33° C | 60% | 1013.9 hPa | 0 mm | - | - | - |
| 1778063557 | 13.33° C | 60% | 1013.8 hPa | 0 mm | - | - | - |
| 1778063254 | 13.33° C | 61% | 1013.8 hPa | 0 mm | - | - | - |
| 1778062953 | 13.33° C | 62% | 1013.8 hPa | 0 mm | - | - | - |
| 1778062653 | 13.33° C | 60% | 1013.8 hPa | 0 mm | - | - | - |
| 1778062351 | 12.78° C | 61% | 1013.8 hPa | 0 mm | - | - | - |
| 1778062045 | 12.78° C | 61% | 1013.8 hPa | 0 mm | - | - | - |
| 1778061742 | 12.78° C | 63% | 1013.9 hPa | 0 mm | - | - | - |
| 1778061441 | 12.78° C | 62% | 1013.9 hPa | 0 mm | - | - | - |
| 1778061141 | 12.78° C | 64% | 1013.7 hPa | 0 mm | - | - | - |
| 1778060841 | 12.22° C | 63% | 1013.8 hPa | 0 mm | - | - | - |
| 1778060539 | 12.22° C | 64% | 1013.8 hPa | 0 mm | - | - | - |
| 1778060240 | 12.22° C | 66% | 1013.8 hPa | 0 mm | - | - | - |
| 1778059939 | 11.67° C | 66% | 1013.8 hPa | 0 mm | - | - | - |
| 1778059636 | 11.67° C | 65% | 1013.7 hPa | 0 mm | - | - | - |
| 1778059337 | 11.67° C | 66% | 1013.8 hPa | 0 mm | - | - | - |
| 1778059037 | 11.11° C | 68% | 1013.9 hPa | 0 mm | - | - | - |
| 1778058735 | 10.56° C | 67% | 1013.7 hPa | 0 mm | - | - | - |
| 1778058433 | 10.56° C | 66% | 1013.8 hPa | 0 mm | - | - | - |
| 1778058131 | 10.56° C | 67% | 1013.9 hPa | 0 mm | - | - | - |
| 1778057829 | 10.56° C | 68% | 1013.8 hPa | 0 mm | - | - | - |
* Rain latest hour (hover to see other rain measurements)
** Current wind speed in m/s (hover to see current wind gust speed)